| time (UTC) | temp C | wind direction | speed KPH | gust KPH | rain 1hr cm | rain 24hr cm | rain mn cm | humidity % | barometer mb |
| 20260903193056 | 24 | 204 | 1.6 | 4.8 | 0.00 | 0.00 | 0.00 | 29 | 1005.0 |
| 20260903191559 | 25 | 206 | 1.6 | 4.8 | 0.00 | 0.00 | 0.00 | 30 | 1005.1 |
| 20260903190051 | 25 | 201 | 0.0 | 3.2 | 0.00 | 0.00 | 0.00 | 30 | 1005.2 |
| 20260903184556 | 24 | 185 | 0.0 | 4.8 | 0.00 | 0.00 | 0.00 | 32 | 1005.4 |
| 20260903183056 | 24 | 197 | 1.6 | 4.8 | 0.00 | 0.00 | 0.00 | 30 | 1005.7 |
| 20260903181547 | 23 | 204 | 1.6 | 4.8 | 0.00 | 0.00 | 0.00 | 29 | 1005.7 |
| 20260903180052 | 23 | 212 | 1.6 | 3.2 | 0.00 | 0.00 | 0.00 | 28 | 1005.8 |
| 20260903174547 | 23 | 189 | 1.6 | 3.2 | 0.00 | 0.00 | 0.00 | 25 | 1005.7 |
| 20260903173046 | 23 | 191 | 0.0 | 3.2 | 0.00 | 0.00 | 0.00 | 24 | 1005.7 |
| 20260903171544 | 23 | 212 | 0.0 | 3.2 | 0.00 | 0.00 | 0.00 | 22 | 1005.7 |
| 20260903170042 | 23 | 236 | 0.0 | 3.2 | 0.00 | 0.00 | 0.00 | 24 | 1005.7 |
| 20260903164539 | 22 | 193 | 0.0 | 0.0 | 0.00 | 0.00 | 0.00 | 26 | 1005.7 |
| 20260903163041 | 21 | 256 | 0.0 | 0.0 | 0.00 | 0.00 | 0.00 | 32 | 1005.7 |
| 20260903161533 | 21 | 243 | 0.0 | 0.0 | 0.00 | 0.00 | 0.00 | 34 | 1005.9 |
| 20260903160030 | 20 | 258 | 0.0 | 0.0 | 0.00 | 0.00 | 0.00 | 35 | 1005.9 |
| 20260903154528 | 20 | 258 | 0.0 | 1.6 | 0.00 | 0.00 | 0.00 | 37 | 1005.9 |
| 20260903153024 | 19 | 251 | 0.0 | 4.8 | 0.00 | 0.00 | 0.00 | 39 | 1005.8 |
| 20260903151521 | 18 | 253 | 0.0 | 1.6 | 0.00 | 0.00 | 0.00 | 43 | 1005.8 |
| 20260903150021 | 17 | 253 | 0.0 | 1.6 | 0.00 | 0.00 | 0.00 | 45 | 1005.7 |
| 20260903144518 | 17 | 264 | 0.0 | 0.0 | 0.00 | 0.00 | 0.00 | 49 | 1005.7 |
| 20260903143035 | 16 | 264 | 0.0 | 0.0 | 0.00 | 0.00 | 0.00 | 50 | 1005.6 |
| 20260903141515 | 15 | 270 | 0.0 | 0.0 | 0.00 | 0.00 | 0.00 | 52 | 1005.4 |
| 20260903140022 | 15 | 264 | 0.0 | 0.0 | 0.00 | 0.00 | 0.00 | 53 | 1005.4 |
| 20260903134512 | 14 | 255 | 0.0 | 0.0 | 0.00 | 0.00 | 0.00 | 51 | 1005.4 |
| 20260903133014 | 15 | 256 | 0.0 | 0.0 | 0.00 | 0.00 | 0.00 | 48 | 1005.2 |
| 20260903131507 | 16 | 253 | 0.0 | 0.0 | 0.00 | 0.00 | 0.00 | 43 | 1005.2 |
| 20260903130008 | 16 | 254 | 0.0 | 0.0 | 0.00 | 0.00 | 0.00 | 42 | 1005.0 |
| 20260903124506 | 16 | 236 | 0.0 | 0.0 | 0.00 | 0.00 | 0.00 | 41 | 1005.1 |
| 20260903123005 | 17 | 261 | 0.0 | 0.0 | 0.00 | 0.00 | 0.00 | 37 | 1005.0 |
| 20260903121504 | 17 | 227 | 0.0 | 0.0 | 0.00 | 0.00 | 0.00 | 31 | 1004.9 |
| 20260903120003 | 17 | 236 | 0.0 | 0.0 | 0.00 | 0.00 | 0.00 | 33 | 1005.0 |
| 20260903114502 | 17 | 216 | 0.0 | 1.6 | 0.00 | 0.00 | 0.00 | 35 | 1005.1 |
| 20260903113100 | 17 | 222 | 0.0 | 0.0 | 0.00 | 0.00 | 0.00 | 34 | 1005.1 |
| 20260903111607 | 16 | 234 | 0.0 | 1.6 | 0.00 | 0.00 | 0.00 | 37 | 1005.1 |
| 20260903110058 | 16 | 238 | 0.0 | 0.0 | 0.00 | 0.00 | 0.00 | 42 | 1005.2 |
| 20260903104556 | 16 | 237 | 0.0 | 0.0 | 0.00 | 0.00 | 0.00 | 45 | 1005.3 |
| 20260903103056 | 15 | 268 | 0.0 | 0.0 | 0.00 | 0.00 | 0.00 | 47 | 1005.5 |
| 20260903101557 | 15 | 265 | 0.0 | 0.0 | 0.00 | 0.00 | 0.00 | 50 | 1005.6 |
| 20260903100054 | 16 | 264 | 0.0 | 0.0 | 0.00 | 0.00 | 0.00 | 50 | 1005.7 |
| 20260903094551 | 16 | 263 | 0.0 | 0.0 | 0.00 | 0.00 | 0.00 | 47 | 1005.8 |
| 20260903093047 | 16 | 268 | 0.0 | 3.2 | 0.00 | 0.00 | 0.00 | 45 | 1006.0 |
| 20260903091544 | 16 | 276 | 0.0 | 0.0 | 0.00 | 0.00 | 0.00 | 48 | 1006.1 |
| 20260903090043 | 16 | 270 | 0.0 | 0.0 | 0.00 | 0.00 | 0.00 | 46 | 1006.2 |
| 20260903084542 | 16 | 276 | 0.0 | 0.0 | 0.00 | 0.00 | 0.00 | 44 | 1006.4 |
| 20260903083046 | 16 | 280 | 0.0 | 0.0 | 0.00 | 0.00 | 0.00 | 42 | 1006.5 |
| 20260903081537 | 16 | 281 | 0.0 | 0.0 | 0.00 | 0.00 | 0.00 | 41 | 1006.4 |
| 20260903080038 | 16 | 295 | 0.0 | 0.0 | 0.00 | 0.00 | 0.00 | 43 | 1006.6 |
| 20260903074532 | 16 | 271 | 0.0 | 0.0 | 0.00 | 0.00 | 0.00 | 41 | 1006.7 |
| 20260903073032 | 17 | 233 | 0.0 | 1.6 | 0.00 | 0.00 | 0.00 | 25 | 1006.7 |
| 20260903071527 | 17 | 243 | 0.0 | 0.0 | 0.00 | 0.00 | 0.00 | 27 | 1006.7 |
| 20260903070023 | 18 | 251 | 0.0 | 0.0 | 0.00 | 0.00 | 0.00 | 27 | 1006.8 |
| 20260903064528 | 17 | 248 | 0.0 | 0.0 | 0.00 | 0.00 | 0.00 | 33 | 1006.7 |
| 20260903063023 | 18 | 255 | 0.0 | 1.6 | 0.00 | 0.00 | 0.00 | 38 | 1006.8 |
| 20260903061524 | 18 | 244 | 0.0 | 0.0 | 0.00 | 0.00 | 0.00 | 38 | 1006.8 |
| 20260903060021 | 18 | 237 | 0.0 | 0.0 | 0.00 | 0.00 | 0.00 | 39 | 1006.9 |
| 20260903054521 | 18 | 216 | 0.0 | 0.0 | 0.00 | 0.00 | 0.00 | 38 | 1007.0 |
| 20260903053021 | 18 | 222 | 0.0 | 0.0 | 0.00 | 0.00 | 0.00 | 39 | 1007.1 |
| 20260903051520 | 18 | 208 | 0.0 | 1.6 | 0.00 | 0.00 | 0.00 | 38 | 1007.1 |
| 20260903050020 | 19 | 208 | 0.0 | 3.2 | 0.00 | 0.00 | 0.00 | 37 | 1007.1 |
| 20260903044521 | 20 | 228 | 0.0 | 1.6 | 0.00 | 0.00 | 0.00 | 33 | 1007.1 |
| 20260903043019 | 20 | 233 | 0.0 | 0.0 | 0.00 | 0.00 | 0.00 | 31 | 1007.0 |
| 20260903041519 | 20 | 239 | 0.0 | 1.6 | 0.00 | 0.00 | 0.00 | 31 | 1006.9 |
| 20260903040018 | 20 | 266 | 0.0 | 1.6 | 0.00 | 0.00 | 0.00 | 34 | 1006.8 |
| 20260903034524 | 20 | 245 | 0.0 | 1.6 | 0.00 | 0.00 | 0.00 | 36 | 1006.6 |
| 20260903033017 | 21 | 359 | 0.0 | 3.2 | 0.00 | 0.00 | 0.00 | 34 | 1006.3 |
| 20260903031517 | 21 | 359 | 0.0 | 3.2 | 0.00 | 0.00 | 0.00 | 31 | 1006.0 |
| 20260903030017 | 21 | 359 | 0.0 | 3.2 | 0.00 | 0.00 | 0.00 | 30 | 1005.8 |
| 20260903024516 | 22 | 359 | 0.0 | 3.2 | 0.00 | 0.00 | 0.00 | 31 | 1005.7 |
| 20260903023016 | 22 | 359 | 0.0 | 3.2 | 0.00 | 0.00 | 0.00 | 33 | 1005.8 |
| 20260903021520 | 22 | 359 | 0.0 | 3.2 | 0.00 | 0.00 | 0.00 | 33 | 1005.7 |
| 20260903020028 | 22 | 224 | 0.0 | 3.2 | 0.00 | 0.00 | 0.00 | 33 | 1005.9 |
| 20260903014514 | 23 | 218 | 1.6 | 4.8 | 0.00 | 0.00 | 0.00 | 32 | 1005.8 |
| 20260903013013 | 23 | 175 | 1.6 | 4.8 | 0.00 | 0.00 | 0.00 | 29 | 1005.7 |
| 20260903011513 | 23 | 195 | 1.6 | 8.0 | 0.00 | 0.00 | 0.00 | 26 | 1005.8 |
| 20260903010013 | 24 | 188 | 1.6 | 9.7 | 0.00 | 0.00 | 0.00 | 23 | 1005.7 |
| 20260903004512 | 25 | 189 | 1.6 | 9.7 | 0.00 | 0.00 | 0.00 | 24 | 1005.6 |
| 20260903003012 | 25 | 204 | 3.2 | 12.9 | 0.00 | 0.00 | 0.00 | 21 | 1005.5 |
| 20260903001512 | 25 | 182 | 1.6 | 4.8 | 0.00 | 0.00 | 0.00 | 24 | 1005.4 |
| 20260903000011 | 25 | 180 | 1.6 | 4.8 | 0.00 | 0.00 | 0.00 | 25 | 1005.4 |
| 20260902234516 | 25 | 224 | 1.6 | 6.4 | 0.00 | 0.00 | 0.00 | 26 | 1005.5 |
| 20260902233013 | 25 | 213 | 1.6 | 4.8 | 0.00 | 0.00 | 0.00 | 25 | 1005.6 |
| 20260902231515 | 25 | 187 | 1.6 | 8.0 | 0.00 | 0.00 | 0.00 | 25 | 1005.6 |
| 20260902230007 | 25 | 179 | 3.2 | 6.4 | 0.00 | 0.00 | 0.00 | 27 | 1005.6 |
| 20260902224507 | 26 | 156 | 1.6 | 9.7 | 0.00 | 0.00 | 0.00 | 24 | 1005.7 |
| 20260902223005 | 26 | 198 | 1.6 | 4.8 | 0.00 | 0.00 | 0.00 | 23 | 1006.0 |
| 20260902221505 | 26 | 233 | 1.6 | 4.8 | 0.00 | 0.00 | 0.00 | 20 | 1006.2 |
| 20260902220004 | 26 | 191 | 1.6 | 6.4 | 0.00 | 0.00 | 0.00 | 18 | 1006.3 |
| 20260902214501 | 26 | 190 | 1.6 | 4.8 | 0.00 | 0.00 | 0.00 | 18 | 1006.5 |
| 20260902213104 | 26 | 200 | 1.6 | 4.8 | 0.00 | 0.00 | 0.00 | 20 | 1006.6 |
| 20260902211607 | 26 | 201 | 1.6 | 6.4 | 0.00 | 0.00 | 0.00 | 21 | 1006.7 |
| 20260902210057 | 25 | 166 | 1.6 | 4.8 | 0.00 | 0.00 | 0.00 | 20 | 1006.8 |
| 20260902204555 | 25 | 158 | 1.6 | 14.5 | 0.00 | 0.00 | 0.00 | 20 | 1006.9 |
| 20260902203054 | 25 | 187 | 1.6 | 4.8 | 0.00 | 0.00 | 0.00 | 20 | 1007.1 |
| 20260902201601 | 25 | 187 | 1.6 | 6.4 | 0.00 | 0.00 | 0.00 | 19 | 1007.1 |
| 20260902200051 | 26 | 191 | 1.6 | 3.2 | 0.00 | 0.00 | 0.00 | 18 | 1007.2 |
| 20260902194553 | 25 | 228 | 1.6 | 4.8 | 0.00 | 0.00 | 0.00 | 15 | 1007.3 |